User: anonymous   Login
Location: Theydon Bois
(51.6750°N, 0.1050°E)
Time: 18:41:59
(UTC+00:00)
Language:

YAOGAN 1 - Orbit

View from above orbital plane
View from above orbital plane
View from above satellite
View from above satellite

Ground track
Ground track

The orbit data is extracted from the following two-line orbital elements,

1 29092U 06015A   18053.47649615 +.00000056 +00000-0 +13569-4 0  9992
2 29092 097.9967 070.0032 0001426 090.1322 270.0055 14.82884105639359
Epoch (UTC): 22 February 2018 11:26:09
Eccentricity: 0.0001426
inclination: 97.9967°
perigee height: 619 km
apogee height: 621 km
right ascension of ascending node: 70.0032°
argument of perigee: 90.1322°
revolutions per day: 14.82884105
mean anomaly at epoch: 270.0055°
orbit number at epoch: 63935

The dashed part of the orbit path shows where the satellite is in the earth's shadow,  

DLR